, AK

(GMT )
Aniak

Weather History for PANI - May, 2014

Change the Weather History Date:

Monday, May 12, 2014

  Actual Average Record
Temperature  
Mean Temperature 54 °F -  
Max Temperature 66 °F 47 °F 68 °F (2005)
Min Temperature 41 °F 31 °F 26 °F (2002)
Degree Days  
Heating Degree Days 12    
Growing Degree Days 4 (Base 50)    
Moisture  
Dew Point 38 °F    
Average Humidity 53    
Maximum Humidity 93    
Minimum Humidity 21    
Precipitation  
Precipitation 0.00 in - - ()
Sea Level Pressure  
Sea Level Pressure 30.31 in    
Wind  
Wind Speed 5 mph (West)    
Max Wind Speed 13 mph    
Max Gust Speed 18 mph    
Visibility 10 miles    
Events      
Averages and records for this station are not official NWS values.
T = Trace of Precipitation, MM = Missing Value Source: NWS Daily Summary

Daily Weather History Graph

Daily Weather History Graph

Search for Another Location

Airport or City:

Trip Planner

Search our weather history database for the weather conditions in past years. The results will help you decide how hot, cold, wet, or windy it might be!

Date:

Astronomy

May. 12, 2014 Rise Set
Actual Time 5:55 AM AKDT 11:15 PM AKDT
Civil Twilight 4:46 AM AKDT 12:25 AM AKDT
Nautical Twilight 3:06 AM AKDT 2:02 AM AKDT
Astronomical Twilight Sun does not set Sun does not set
Moon 8:48 PM AKDT (5/12) 5:29 AM AKDT (5/12)
Length of Visible Light 19h 39m
Length of Day
17h 20m
Waxing Gibbous, 95% of the Moon is Illuminated
May 12
Waxing Gibbous
May 14
Full
May 21
Last Quarter
May 28
New
Jun 5
First Quarter

Hourly Weather History & Observations

Time (AKDT) Temp. Windchill Dew Point Humidity Pressure Visibility Wind Dir Wind Speed Gust Speed Precip Events Conditions
12:16 AM 59.0 °F - 41.0 °F 51% 30.26 in 10.0 mi NNW 9.2 mph - N/A   Mostly Cloudy
12:36 AM 59.0 °F - 39.2 °F 48% 30.26 in 10.0 mi North 4.6 mph - N/A   Partly Cloudy
12:56 AM 55.4 °F - 41.0 °F 58% 30.27 in 10.0 mi SSE 4.6 mph - N/A   Clear
1:16 AM 55.4 °F - 39.2 °F 54% 30.28 in 10.0 mi WSW 3.5 mph - N/A   Clear
1:36 AM 55.4 °F - 39.2 °F 54% 30.28 in 10.0 mi Calm Calm - N/A   Mostly Cloudy
1:56 AM 53.6 °F - 39.2 °F 58% 30.28 in 10.0 mi Calm Calm - N/A   Scattered Clouds
2:16 AM 51.8 °F - 39.2 °F 62% 30.29 in 10.0 mi Calm Calm - N/A   Clear
2:36 AM 53.6 °F - 39.2 °F 58% 30.29 in 10.0 mi NNW 8.1 mph - N/A   Clear
2:56 AM 53.6 °F - 39.2 °F 58% 30.29 in 10.0 mi NNW 6.9 mph - N/A   Clear
3:16 AM 51.8 °F - 39.2 °F 62% 30.29 in 10.0 mi NW 5.8 mph - N/A   Clear
3:36 AM 50.0 °F - 39.2 °F 66% 30.29 in 10.0 mi Calm Calm - N/A   Clear
3:56 AM 48.2 °F - 39.2 °F 71% 30.29 in 10.0 mi SW 3.5 mph - N/A   Clear
4:16 AM 46.4 °F 44.3 °F 37.4 °F 71% 30.29 in 10.0 mi West 4.6 mph - N/A   Clear
4:36 AM 44.6 °F 42.2 °F 39.2 °F 81% 30.29 in 10.0 mi West 4.6 mph - N/A   Clear
4:56 AM 42.8 °F - 37.4 °F 81% 30.30 in 10.0 mi Calm Calm - N/A   Clear
5:16 AM 42.8 °F 41.1 °F 37.4 °F 81% 30.30 in 10.0 mi West 3.5 mph - N/A   Clear
5:36 AM 42.8 °F 39.3 °F 39.2 °F 87% 30.30 in 10.0 mi WSW 5.8 mph - N/A   Clear
6:16 AM 41.0 °F 38.0 °F 37.4 °F 87% 30.32 in 10.0 mi West 4.6 mph - N/A   Clear
6:36 AM 41.0 °F - 37.4 °F 87% 30.33 in 10.0 mi Calm Calm - N/A   Clear
6:56 AM 41.0 °F - 39.2 °F 93% 30.33 in 10.0 mi Calm Calm - N/A   Partly Cloudy
7:16 AM 42.8 °F 41.1 °F 37.4 °F 81% 30.33 in 10.0 mi West 3.5 mph - N/A   Clear
7:36 AM 42.8 °F - 37.4 °F 81% 30.34 in 10.0 mi Calm Calm - N/A   Clear
7:56 AM 42.8 °F 41.1 °F 37.4 °F 81% 30.34 in 10.0 mi WSW 3.5 mph - N/A   Clear
8:16 AM 44.6 °F 42.2 °F 39.2 °F 81% 30.34 in 10.0 mi WSW 4.6 mph - N/A   Clear
8:36 AM 44.6 °F 43.1 °F 39.2 °F 81% 30.34 in 10.0 mi WSW 3.5 mph - N/A   Clear
8:56 AM 46.4 °F 45.2 °F 39.2 °F 76% 30.34 in 10.0 mi West 3.5 mph - N/A   Clear
9:16 AM 46.4 °F - 39.2 °F 76% 30.34 in 10.0 mi Calm Calm - N/A   Clear
9:36 AM 48.2 °F - 39.2 °F 71% 30.34 in 10.0 mi Calm Calm - N/A   Clear
9:56 AM 50.0 °F - 39.2 °F 66% 30.34 in 10.0 mi West 3.5 mph - N/A   Clear
10:16 AM 51.8 °F - 39.2 °F 62% 30.34 in 10.0 mi WSW 4.6 mph - N/A   Clear
10:36 AM 53.6 °F - 39.2 °F 58% 30.34 in 10.0 mi West 4.6 mph - N/A   Clear
10:56 AM 53.6 °F - 39.2 °F 58% 30.34 in 10.0 mi West 4.6 mph - N/A   Clear
11:36 AM 57.2 °F - 39.2 °F 51% 30.34 in 10.0 mi West 6.9 mph - N/A   Clear
11:56 AM 59.0 °F - 39.2 °F 48% 30.34 in 10.0 mi SW 5.8 mph - N/A   Clear
12:16 PM 59.0 °F - 39.2 °F 48% 30.34 in 10.0 mi WNW 5.8 mph - N/A   Clear
12:36 PM 60.8 °F - 39.2 °F 45% 30.34 in 10.0 mi SW 3.5 mph - N/A   Clear
12:56 PM 60.8 °F - 39.2 °F 45% 30.33 in 10.0 mi West 4.6 mph - N/A   Clear
1:16 PM 62.6 °F - 39.2 °F 42% 30.33 in 10.0 mi West 6.9 mph - N/A   Clear
1:36 PM 62.6 °F - 37.4 °F 39% 30.33 in 10.0 mi West 6.9 mph - N/A   Clear
1:56 PM 62.6 °F - 37.4 °F 39% 30.33 in 10.0 mi WNW 3.5 mph - N/A   Clear
2:16 PM 64.4 °F - 37.4 °F 37% 30.32 in 10.0 mi West 5.8 mph - N/A   Clear
2:36 PM 64.4 °F - 37.4 °F 37% 30.32 in 10.0 mi SW 6.9 mph - N/A   Clear
2:56 PM 64.4 °F - 37.4 °F 37% 30.31 in 10.0 mi West 6.9 mph - N/A   Clear
3:16 PM 64.4 °F - 37.4 °F 37% 30.30 in 10.0 mi NNW 6.9 mph - N/A   Clear
3:36 PM 66.2 °F - 37.4 °F 35% 30.30 in 10.0 mi NW 8.1 mph - N/A   Clear
3:56 PM 66.2 °F - 35.6 °F 32% 30.30 in 10.0 mi WNW 9.2 mph - N/A   Clear
4:16 PM 66.2 °F - 37.4 °F 35% 30.30 in 10.0 mi NW 10.4 mph - N/A   Clear
4:36 PM 66.2 °F - 35.6 °F 32% 30.30 in 10.0 mi WNW 9.2 mph - N/A   Clear
4:56 PM 66.2 °F - 35.6 °F 32% 30.30 in 10.0 mi West 11.5 mph - N/A   Clear
5:16 PM 66.2 °F - 35.6 °F 32% 30.30 in 10.0 mi West 8.1 mph - N/A   Clear
5:36 PM 66.2 °F - 35.6 °F 32% 30.29 in 10.0 mi WNW 9.2 mph - N/A   Clear
5:56 PM 66.2 °F - 35.6 °F 32% 30.29 in 10.0 mi West 9.2 mph - N/A   Clear
6:16 PM 66.2 °F - 35.6 °F 32% 30.29 in 10.0 mi West 9.2 mph - N/A   Clear
6:36 PM 64.4 °F - 35.6 °F 34% 30.29 in 10.0 mi West 9.2 mph - N/A   Clear
6:56 PM 66.2 °F - 35.6 °F 32% 30.29 in 10.0 mi West 10.4 mph - N/A   Clear
7:16 PM 64.4 °F - 33.8 °F 32% 30.29 in 10.0 mi West 12.7 mph 17.3 mph N/A   Clear
7:36 PM 64.4 °F - 33.8 °F 32% 30.29 in 10.0 mi West 11.5 mph 18.4 mph N/A   Clear
7:56 PM 62.6 °F - 33.8 °F 34% 30.29 in 10.0 mi West 8.1 mph 17.3 mph N/A   Clear
8:16 PM 62.6 °F - 35.6 °F 37% 30.29 in 10.0 mi West 10.4 mph - N/A   Clear
8:36 PM 62.6 °F - 35.6 °F 37% 30.30 in 10.0 mi West 9.2 mph - N/A   Clear
8:56 PM 60.8 °F - 35.6 °F 39% 30.30 in 10.0 mi West 8.1 mph - N/A   Clear
9:16 PM 60.8 °F - 35.6 °F 39% 30.31 in 10.0 mi WSW 8.1 mph - N/A   Clear
9:36 PM 60.8 °F - 33.8 °F 36% 30.31 in 10.0 mi West 9.2 mph - N/A   Clear
10:16 PM 57.2 °F - 35.6 °F 44% 30.32 in 10.0 mi West 5.8 mph - N/A   Clear
10:36 PM 55.4 °F - 35.6 °F 47% 30.32 in 10.0 mi WSW 3.5 mph - N/A   Clear
10:56 PM 55.4 °F - 37.4 °F 51% 30.33 in 10.0 mi West 6.9 mph - N/A   Clear
11:16 PM 53.6 °F - 37.4 °F 54% 30.34 in 10.0 mi West 6.9 mph - N/A   Clear
11:36 PM 51.8 °F - 35.6 °F 54% 30.34 in 10.0 mi West 6.9 mph - N/A   Clear
11:56 PM 50.0 °F - 35.6 °F 58% 30.35 in 10.0 mi WNW 5.8 mph - N/A   Clear